Location: Astronomy Club of Akron Observatory
(40.9700°N, 81.5606°W)
Time: 20:21:07
(UTC-04:00)

ATLAS 2AS CENTAUR R/B - Visible Passes

Search period start: 01 October 2014 00:00
Search period end: 11 October 2014 00:00
Orbit: 919 x 1293 km, 63.7° (Epoch: 07 September)

Date Brightness Start Highest point End Pass type
(mag) Time Alt. Az. Time Alt. Az. Time Alt. Az.
01 Oct 4.8 03:15:17 17° E 03:15:17 17° E 03:19:34 10° ENE visible
01 Oct 2.8 05:02:46 52° SSW 05:04:51 90° ESE 05:12:39 10° NE visible
01 Oct 4.0 06:50:51 10° W 06:56:56 27° NW 07:03:24 10° NNE visible
02 Oct 3.1 04:19:58 60° SE 04:20:13 60° ESE 04:27:46 10° NE visible
02 Oct 3.6 06:07:27 21° W 06:11:39 36° NW 06:18:47 10° NNE visible
03 Oct 4.0 03:37:07 35° E 03:37:07 35° E 03:42:39 10° NE visible
03 Oct 3.2 05:24:35 41° W 05:26:33 50° NW 05:34:08 10° NNE visible
04 Oct 4.9 02:54:12 19° ENE 02:54:12 19° ENE 02:57:09 10° ENE visible
04 Oct 2.8 04:41:40 73° NW 04:41:40 73° NW 04:49:26 10° NNE visible
04 Oct 4.3 06:29:08 12° WNW 06:34:06 23° NNW 06:40:05 10° NNE visible
05 Oct 3.4 03:58:41 55° NE 03:58:41 55° NE 04:04:38 10° NE visible
05 Oct 3.9 05:46:09 25° WNW 05:48:43 30° NW 05:55:28 10° NNE visible
06 Oct 4.3 03:15:40 31° ENE 03:15:40 31° ENE 03:19:40 10° NE visible
06 Oct 3.4 05:03:08 41° NW 05:03:30 41° NW 05:10:50 10° NNE visible
06 Oct 4.7 06:52:27 10° NW 06:56:56 16° NNW 07:01:33 10° NNE visible
07 Oct 5.1 02:32:36 17° ENE 02:32:36 17° ENE 02:34:26 10° NE visible
07 Oct 3.4 04:20:04 49° N 04:20:04 49° N 04:26:10 10° NNE visible
07 Oct 4.5 06:07:31 14° WNW 06:11:19 20° NNW 06:16:48 10° NNE visible
08 Oct 4.0 03:36:58 38° NNE 03:36:58 38° NNE 03:41:26 10° NNE visible
08 Oct 4.1 05:24:25 24° NW 05:25:50 25° NNW 05:32:09 10° NNE visible
09 Oct 4.7 02:53:50 24° NE 02:53:50 24° NE 02:56:35 10° NE visible
09 Oct 3.9 04:41:17 33° NNW 04:41:17 33° NNW 04:47:31 10° NNE visible
09 Oct 4.8 06:30:15 10° NW 06:34:17 15° NNW 06:38:25 10° NNE visible
10 Oct 5.3 02:10:40 13° NE 02:10:40 13° NE 02:11:31 10° NE visible
10 Oct 4.1 03:58:07 34° N 03:58:07 34° N 04:02:53 10° NNE visible
10 Oct 4.6 05:45:34 14° NW 05:48:35 17° NNW 05:53:33 10° NNE visible
